This is the latest recevied weather packets stored in our database for station/object N9CQL. If no packets are shown the sender has not sent any weather packets the latest 10 day(s).
| Time | Temp. | Humidity | Pressure | Rain* | Wind** | Luminosity | Snow |
|---|---|---|---|---|---|---|---|
| 1777918365 | 26.67° C | 34% | 999.2 hPa | 0 mm | - | 754 W/m² | - |
| 1777918064 | 26.11° C | 39% | 999.3 hPa | 0 mm | - | 769 W/m² | - |
| 1777917762 | 26.67° C | 41% | 999.3 hPa | 0 mm | - | 789 W/m² | - |
| 1777917459 | 26.11° C | 42% | 999.2 hPa | 0 mm | - | 752 W/m² | - |
| 1777917156 | 26.11° C | 41% | 999.4 hPa | 0 mm | - | 781 W/m² | - |
| 1777916854 | 25.56° C | 44% | 999.3 hPa | 0 mm | - | 797 W/m² | - |
| 1777916552 | 26.11° C | 42% | 999.6 hPa | 0 mm | - | 764 W/m² | - |
| 1777916248 | 26.11° C | 41% | 999.4 hPa | 0 mm | - | 766 W/m² | - |
| 1777915945 | 26.11° C | 42% | 999.6 hPa | 0 mm | - | 789 W/m² | - |
| 1777915642 | 25.56° C | 46% | 999.4 hPa | 0 mm | - | 792 W/m² | - |
| 1777915338 | 25° C | 42% | 999.6 hPa | 0 mm | - | 811 W/m² | - |
| 1777915035 | 25° C | 42% | 999.6 hPa | 0 mm | - | 804 W/m² | - |
| 1777914732 | 25° C | 43% | 999.8 hPa | 0 mm | - | 778 W/m² | - |
| 1777914428 | 25.56° C | 44% | 999.8 hPa | 0 mm | - | 749 W/m² | - |
| 1777914126 | 25° C | 46% | 1000.1 hPa | 0 mm | - | 783 W/m² | - |
| 1777913822 | 25° C | 46% | 1000.1 hPa | 0 mm | - | 788 W/m² | - |
| 1777913518 | 25° C | 48% | 1000.1 hPa | 0 mm | - | 766 W/m² | - |
| 1777913215 | 24.44° C | 46% | 1000.1 hPa | 0 mm | - | 775 W/m² | - |
| 1777912911 | 24.44° C | 47% | 1000.2 hPa | 0 mm | - | 773 W/m² | - |
| 1777912608 | 24.44° C | 46% | 1000.2 hPa | 0 mm | - | 773 W/m² | - |
| 1777912304 | 24.44° C | 47% | 1000.2 hPa | 0 mm | - | 786 W/m² | - |
| 1777912000 | 24.44° C | 48% | 1000.4 hPa | 0 mm | - | 743 W/m² | - |
| 1777911696 | 23.89° C | 47% | 1000.7 hPa | 0 mm | - | 702 W/m² | - |
| 1777911392 | 23.33° C | 48% | 1000.8 hPa | 0 mm | - | 713 W/m² | - |
| 1777911091 | 23.33° C | 49% | 1000.8 hPa | 0 mm | - | 755 W/m² | - |
* Rain latest hour (hover to see other rain measurements)
** Current wind speed in m/s (hover to see current wind gust speed)